Location: ??
(35.5052°N, 139.7262°E)
Time: 23:30:38
(UTC+00:00)

Daily predictions for brighter satellites

Satellite Brightness Start Highest point End
(mag) Time Altitude Azimuth Time Altitude Azimuth Time Altitude Azimuth
COSMOS 2406 4.4 18:41:42 35° SE 18:42:40 38° ESE 18:47:52 10° NE
Cosmos 2082 Rocket 4.2 18:53:41 17° NNE 18:53:41 17° NNE 18:54:55 10° NNE
Cosmos 2098 Rocket 3.9 19:06:20 70° SE 19:06:20 70° SE 19:11:25 10° S
Cosmos 1980 Rocket 2.2 19:15:52 69° S 19:15:52 69° S 19:20:44 10° SSE
Cosmos 2142 Rocket 4.4 19:13:28 41° N 19:15:48 83° E 19:21:58 10° S
FengYun 1-2 T 4.3 19:15:37 10° NNE 19:21:17 79° ESE 19:26:55 10° S
Cosmos 2369 4.1 19:21:25 37° N 19:23:31 61° ENE 19:29:05 10° SSE
Cosmos 1933 4.1 19:28:33 48° ESE 19:28:33 48° ESE 19:31:42 10° SSE
Cosmos 489 Rocket 4.3 19:22:36 10° SSW 19:28:55 80° WNW 19:35:14 10° NNE
Nadezhda 4 Rocket 3.9 19:25:27 10° S 19:31:46 86° W 19:38:05 10° N
COSMOS 2455 3.1 19:31:07 32° NNW 19:33:57 68° ENE 19:39:55 10° SE
Cosmos 1606 Rocket 4.0 19:32:23 34° NNE 19:34:06 60° E 19:38:24 10° SSE
Cosmos 841 Rocket 4.0 19:39:45 42° NNW 19:39:45 42° NNW 19:43:29 10° N
CZ-3 R/B 3.7 19:30:19 29° W 19:38:49 43° SW 19:46:30 10° SE
Cosmos 2333 Rocket 4.1 19:42:07 10° N 19:46:57 27° ENE 19:51:44 10° ESE
Cosmos 546 4.4 19:51:16 85° NW 19:51:21 90° NNE 19:55:07 10° SE
Helios 1A Rocket 4.4 19:48:47 10° SE 19:51:39 27° ENE 19:54:32 10° NNE
SL-8 R/B 4.4 19:57:16 34° WSW 19:57:39 35° SW 20:01:58 10° SSE
SL-24 R/B - RUBIN 2 4.3 19:58:23 34° SW 19:58:23 34° SW 20:01:58 10° S
Cosmos 1726 Rocket 3.4 19:56:09 17° N 19:59:22 85° E 20:03:31 10° S
NOSS 2-1 (D) 3.6 20:04:42 33° NNW 20:06:34 90° W 20:12:05 10° SSE
SWAS 4.2 20:05:27 31° NNW 20:07:18 88° W 20:11:20 10° SSE
USA 59 Rocket 0.1 20:05:48 34° NW 20:07:38 80° WSW 20:13:15 10° SSE
Cosmos 2322 Rocket 3.8 20:05:32 10° N 20:10:34 31° ENE 20:15:32 10° ESE
Cosmos 1898 Rocket 3.6 20:08:13 24° NW 20:11:14 55° WSW 20:16:21 10° S
CZ-3C R/B 3.7 20:09:01 10° SSW 20:13:13 26° SSE 20:28:12 10° ESE
Cosmos 1892 Rocket 3.6 20:10:35 10° SSW 20:14:47 50° W 20:19:03 10° N
IRS-1D 3.7 20:10:10 10° N 20:14:57 45° WNW 20:19:49 10° SW
NOSS 2-1 (E) 3.6 20:14:49 24° NNW 20:17:16 90° ESE 20:22:44 10° SSE
Meteor 2-3 Rocket 3.9 20:13:45 10° SSW 20:19:15 47° WNW 20:24:45 10° N
Cosmos 1627 Rocket 4.4 20:15:43 10° SSW 20:21:44 64° W 20:27:49 10° N
Cosmos 405 Rocket 3.5 20:19:56 10° SSE 20:23:02 44° E 20:26:10 10° NNE
COSMO-SKYMED 1 2.3 20:21:44 10° S 20:25:50 77° WSW 20:29:57 10° NNW
COSMOS 2406 4.1 20:23:59 17° WSW 20:26:59 26° WNW 20:31:42 10° N
Meteor 1-26 Rocket 4.4 20:21:40 10° N 20:27:15 79° E 20:33:00 10° SSE
Cosmos 2237 4.3 20:23:06 14° NNW 20:27:48 54° WSW 20:33:18 10° S
Cosmos-2242 3.1 20:24:49 10° N 20:29:02 76° E 20:33:12 10° S
Tiangong -2.0 20:28:15 29° W 20:29:39 62° SSW 20:32:50 10° SE
Cosmos 1937 Rocket 3.7 20:28:48 13° NNW 20:33:07 46° WSW 20:37:59 10° S
Cosmos 2082 Rocket 4.1 20:35:34 11° NW 20:35:34 11° NW 20:36:12 10° NNW
Cosmos 858 Rocket 4.4 20:29:06 10° NNW 20:34:14 67° WSW 20:39:22 10° S
NOSS 2-1 (C) 4.0 20:33:30 19° NW 20:36:18 49° WSW 20:41:41 10° SSE
SL-16 R/B 2.2 20:32:41 10° NNW 20:38:22 83° WSW 20:44:01 10° SSE
OAO 2 Rocket 3.8 20:35:01 10° WSW 20:40:09 62° SSE 20:45:11 10° E
ARIANE 5 R/B 4.2 20:38:53 10° NNE 20:43:44 38° E 20:48:32 10° SSE
IRIDIUM 104 4.4 20:40:01 10° S 20:45:14 88° E 20:50:29 10° N
Delta 2 Rocket 4.2 20:43:51 13° WSW 20:45:51 23° SSW 20:48:19 10° SSE
Cosmos 2026 Rocket 4.4 20:42:18 10° SW 20:47:47 36° WNW 20:53:19 10° NNW
SOZ 4.2 20:44:03 10° SW 20:48:05 89° E 20:50:26 10° NE
Cosmos 1602 Rocket 4.4 20:44:33 10° S 20:48:52 55° E 20:53:12 10° NNE
Cosmos 1733 1.2 20:48:30 10° SSW 20:49:58 40° W 20:51:27 10° N
NOSS 3-1 (C) 4.4 20:43:30 10° NW 20:51:12 60° WSW 21:00:19 10° SSE
Cosmos 1814 Rocket 4.2 20:47:47 10° SW 20:52:50 50° WNW 20:57:58 10° N
IRIDIUM 114 4.3 20:49:10 10° S 20:54:22 75° W 20:59:36 10° N
DMSP B5D1-3 4.5 20:49:28 10° S 20:54:34 79° WSW 20:59:42 10° NNW
Cosmos 2058 Rocket 3.4 20:51:43 10° NNW 20:55:55 44° W 21:00:05 10° SSW
IGS 5A 3.5 20:52:48 10° N 20:56:40 49° WNW 21:00:31 10° SSW
BREEZE-M DEB (TANK) 4.2 20:58:00 10° NW 21:01:15 36° NNE 21:09:25 10° E
Cosmos 2278 3.8 20:56:40 10° NNW 21:02:13 59° WSW 21:07:43 10° S
CBERS-1 4.1 20:58:21 10° N 21:03:20 57° WNW 21:08:17 10° SSW
IRIDIUM 103 4.4 20:58:24 10° SSW 21:03:32 60° W 21:08:42 10° N
OAO 3 Copernicus 4.3 20:59:04 10° W 21:04:06 86° S 21:09:07 10° E
BREEZE-M DEB (TANK) 3.8 20:59:56 10° WNW 21:05:03 36° SW 21:07:54 10° SSE
SJ-12 4.4 21:01:31 10° NNE 21:05:17 61° E 21:09:04 10° S
BREEZE-M DEB (TANK) 3.2 21:05:22 10° W 21:07:46 31° NNW 21:10:03 10° NE
MOS 1 Rocket 4.3 21:03:29 10° NNE 21:08:48 62° E 21:13:55 10° S
CORIOLIS 4.2 21:04:03 10° N 21:09:27 83° WNW 21:14:51 10° SSW
Cosmos 1484 Rocket 3.6 21:06:48 10° NNW 21:09:28 22° WNW 21:12:05 10° WSW
BREEZE-M DEB (TANK) 4.3 21:06:34 10° SW 21:11:13 87° SE 21:31:40 10° NE
Cosmos 1437 Rocket 4.1 21:09:34 10° N 21:12:47 35° E 21:16:00 10° SSE
Cosmos 1553 Rocket 4.2 21:12:24 10° NNW 21:18:40 59° W 21:24:55 10° S
